Time,TemperatureF,DewpointF,PressureIn,WindDirection,WindDirectionDegrees,WindSpeedMPH,WindSpeedGustMPH,Humidity,HourlyPrecipIn,Conditions,Clouds,dailyrainin,SoftwareType,DateUTC
2013-03-03 00:01:00,48.0,21.0,11.76,NW,325,4.0,4.0,34,-99.99,,,-99.99,,2013-03-03 08:01:00,
2013-03-03 00:11:00,46.0,21.0,11.82,NNW,338,3.0,4.0,36,-99.99,,,-99.99,,2013-03-03 08:11:00,
2013-03-03 00:21:00,46.0,21.0,11.83,NW,325,3.0,4.0,36,-99.99,,,-99.99,,2013-03-03 08:21:00,
2013-03-03 00:31:00,47.0,20.0,11.76,NW,325,3.0,4.0,34,-99.99,,,-99.99,,2013-03-03 08:31:00,
2013-03-03 00:41:00,47.0,19.0,11.73,NNW,332,3.0,3.0,33,-99.99,,,-99.99,,2013-03-03 08:41:00,
2013-03-03 00:53:00,48.0,19.0,11.65,NW,323,2.0,3.0,31,-99.99,,,-99.99,,2013-03-03 08:53:00,
2013-03-03 01:01:00,48.0,19.0,11.65,NW,323,2.0,3.0,31,-99.99,,,-99.99,,2013-03-03 09:01:00,
2013-03-03 01:11:00,48.0,18.0,11.63,NNW,334,3.0,4.0,30,-99.99,,,-99.99,,2013-03-03 09:11:00,
2013-03-03 01:21:00,48.0,18.0,11.62,NNW,331,3.0,3.0,30,-99.99,,,-99.99,,2013-03-03 09:21:00,
2013-03-03 01:31:00,47.0,18.0,11.66,NNW,333,2.0,3.0,31,-99.99,,,-99.99,,2013-03-03 09:31:00,
2013-03-03 01:41:00,47.0,18.0,11.65,NNW,328,3.0,3.0,31,-99.99,,,-99.99,,2013-03-03 09:41:00,
2013-03-03 01:51:00,47.0,17.0,11.63,NNW,330,3.0,4.0,30,-99.99,,,-99.99,,2013-03-03 09:51:00,
2013-03-03 02:01:00,48.0,18.0,11.61,NW,320,3.0,4.0,30,-99.99,,,-99.99,,2013-03-03 10:01:00,
2013-03-03 02:11:00,47.0,18.0,11.62,NNW,331,3.0,4.0,31,-99.99,,,-99.99,,2013-03-03 10:11:00,
2013-03-03 02:21:00,46.0,17.0,11.63,NW,310,2.0,3.0,31,-99.99,,,-99.99,,2013-03-03 10:21:00,
2013-03-03 02:31:00,45.0,17.0,11.66,NNW,327,2.0,4.0,32,-99.99,,,-99.99,,2013-03-03 10:31:00,
2013-03-03 02:41:00,45.0,17.0,11.66,NNW,331,3.0,4.0,32,-99.99,,,-99.99,,2013-03-03 10:41:00,
2013-03-03 02:52:00,46.0,17.0,11.62,NW,324,2.0,3.0,31,-99.99,,,-99.99,,2013-03-03 10:52:00,
2013-03-03 03:01:00,46.0,17.0,11.62,NW,324,2.0,3.0,31,-99.99,,,-99.99,,2013-03-03 11:01:00,
2013-03-03 03:11:00,46.0,16.0,11.60,NW,311,2.0,2.0,30,-99.99,,,-99.99,,2013-03-03 11:11:00,
2013-03-03 03:21:00,46.0,16.0,11.60,NNW,336,2.0,3.0,30,-99.99,,,-99.99,,2013-03-03 11:21:00,
2013-03-03 03:31:00,46.0,16.0,11.59,NW,320,3.0,4.0,30,-99.99,,,-99.99,,2013-03-03 11:31:00,
2013-03-03 03:41:00,45.0,16.0,11.59,NNW,330,2.0,4.0,31,-99.99,,,-99.99,,2013-03-03 11:41:00,
2013-03-03 03:52:00,44.0,16.0,11.63,NW,325,3.0,4.0,32,-99.99,,,-99.99,,2013-03-03 11:52:00,
2013-03-03 04:01:00,44.0,16.0,11.63,NW,325,3.0,4.0,32,-99.99,,,-99.99,,2013-03-03 12:01:00,
2013-03-03 04:11:00,44.0,17.0,11.65,NW,317,4.0,5.0,33,-99.99,,,-99.99,,2013-03-03 12:11:00,
2013-03-03 04:21:00,44.0,16.0,11.65,NNW,330,3.0,4.0,32,-99.99,,,-99.99,,2013-03-03 12:21:00,
2013-03-03 04:31:00,45.0,16.0,11.60,NNW,338,4.0,6.0,31,-99.99,,,-99.99,,2013-03-03 12:31:00,
2013-03-03 04:42:00,44.0,17.0,11.65,NW,320,4.0,5.0,33,-99.99,,,-99.99,,2013-03-03 12:42:00,
2013-03-03 04:52:00,45.0,17.0,11.64,NW,321,5.0,5.0,32,-99.99,,,-99.99,,2013-03-03 12:52:00,
2013-03-03 05:01:00,46.0,17.0,11.61,NNW,329,4.0,5.0,31,-99.99,,,-99.99,,2013-03-03 13:01:00,
2013-03-03 05:11:00,46.0,17.0,11.61,NW,315,3.0,4.0,31,-99.99,,,-99.99,,2013-03-03 13:11:00,
2013-03-03 05:21:00,46.0,17.0,11.62,NW,316,4.0,5.0,31,-99.99,,,-99.99,,2013-03-03 13:21:00,
2013-03-03 05:31:00,46.0,17.0,11.62,NNW,336,3.0,5.0,31,-99.99,,,-99.99,,2013-03-03 13:31:00,
2013-03-03 05:41:00,47.0,16.0,11.59,NW,321,3.0,4.0,29,-99.99,,,-99.99,,2013-03-03 13:41:00,
2013-03-03 05:51:00,47.0,16.0,11.56,WNW,296,2.0,3.0,29,-99.99,,,-99.99,,2013-03-03 13:51:00,
2013-03-03 06:01:00,48.0,16.0,11.55,NW,309,2.0,3.0,28,-99.99,,,-99.99,,2013-03-03 14:01:00,
2013-03-03 06:11:00,48.0,16.0,11.57,WNW,303,2.0,3.0,28,-99.99,,,-99.99,,2013-03-03 14:11:00,
2013-03-03 06:21:00,48.0,16.0,11.57,NW,318,3.0,4.0,28,-99.99,,,-99.99,,2013-03-03 14:21:00,
2013-03-03 06:31:00,48.0,17.0,11.57,NNW,332,3.0,4.0,29,-99.99,,,-99.99,,2013-03-03 14:31:00,
2013-03-03 06:42:00,47.0,17.0,11.59,NNW,334,1.0,3.0,30,-99.99,,,-99.99,,2013-03-03 14:42:00,
2013-03-03 06:52:00,47.0,17.0,11.59,WSW,245,1.0,1.0,30,-99.99,,,-99.99,,2013-03-03 14:52:00,
2013-03-03 07:01:00,48.0,16.0,11.54,NW,313,1.0,2.0,28,-99.99,,,-99.99,,2013-03-03 15:01:00,
2013-03-03 07:11:00,49.0,16.0,11.52,NW,325,1.0,2.0,26,-99.99,,,-99.99,,2013-03-03 15:11:00,
2013-03-03 07:22:00,50.0,16.0,11.49,North,358,2.0,3.0,25,-99.99,,,-99.99,,2013-03-03 15:22:00,
2013-03-03 07:31:00,50.0,16.0,11.49,NW,316,3.0,3.0,25,-99.99,,,-99.99,,2013-03-03 15:31:00,
2013-03-03 07:42:00,49.0,16.0,11.50,North,351,2.0,4.0,26,-99.99,,,-99.99,,2013-03-03 15:42:00,
2013-03-03 07:51:00,51.0,16.0,11.48,NW,311,2.0,5.0,25,-99.99,,,-99.99,,2013-03-03 15:51:00,
2013-03-03 08:01:00,51.0,16.0,11.47,North,350,1.0,2.0,24,-99.99,,,-99.99,,2013-03-03 16:01:00,
2013-03-03 08:12:00,51.0,16.0,11.47,North,350,1.0,2.0,24,-99.99,,,-99.99,,2013-03-03 16:12:00,
2013-03-03 08:21:00,52.0,18.0,11.57,NNW,339,1.0,3.0,26,-99.99,,,-99.99,,2013-03-03 16:21:00,
2013-03-03 08:31:00,54.0,17.0,11.51,South,175,1.0,3.0,23,-99.99,,,-99.99,,2013-03-03 16:31:00,
2013-03-03 08:41:00,56.0,19.0,11.54,WNW,283,4.0,9.0,23,-99.99,,,-99.99,,2013-03-03 16:41:00,
2013-03-03 08:51:00,57.0,20.0,11.56,WNW,284,3.0,7.0,23,-99.99,,,-99.99,,2013-03-03 16:51:00,
2013-03-03 09:01:00,58.0,17.0,11.48,West,281,9.0,15.0,20,-99.99,,,-99.99,,2013-03-03 17:01:00,
2013-03-03 09:11:00,58.0,17.0,11.49,West,261,8.0,13.0,20,-99.99,,,-99.99,,2013-03-03 17:11:00,
2013-03-03 09:32:00,57.0,16.0,11.45,West,275,8.0,13.0,20,-99.99,,,-99.99,,2013-03-03 17:32:00,
2013-03-03 09:42:00,59.0,18.0,11.48,WSW,256,8.0,14.0,20,-99.99,,,-99.99,,2013-03-03 17:42:00,
2013-03-03 09:52:00,59.0,17.0,11.48,West,262,10.0,19.0,19,-99.99,,,-99.99,,2013-03-03 17:52:00,
2013-03-03 10:01:00,58.0,16.0,11.47,West,261,11.0,19.0,19,-99.99,,,-99.99,,2013-03-03 18:01:00,
2013-03-03 10:11:00,59.0,17.0,11.49,West,265,11.0,19.0,19,-99.99,,,-99.99,,2013-03-03 18:11:00,
2013-03-03 10:21:00,59.0,18.0,11.49,West,266,11.0,17.0,20,-99.99,,,-99.99,,2013-03-03 18:21:00,
2013-03-03 10:31:00,58.0,17.0,11.50,WSW,250,11.0,16.0,20,-99.99,,,-99.99,,2013-03-03 18:31:00,
2013-03-03 10:41:00,59.0,18.0,11.51,WSW,255,10.0,18.0,20,-99.99,,,-99.99,,2013-03-03 18:41:00,
2013-03-03 10:52:00,59.0,17.0,11.51,West,265,12.0,20.0,19,-99.99,,,-99.99,,2013-03-03 18:52:00,
2013-03-03 11:01:00,59.0,18.0,11.52,West,271,12.0,18.0,20,-99.99,,,-99.99,,2013-03-03 19:01:00,
2013-03-03 11:11:00,59.0,18.0,11.52,West,271,12.0,18.0,20,-99.99,,,-99.99,,2013-03-03 19:11:00,
2013-03-03 11:21:00,60.0,18.0,11.50,West,270,10.0,17.0,19,-99.99,,,-99.99,,2013-03-03 19:21:00,
2013-03-03 11:31:00,60.0,15.0,11.46,WSW,258,11.0,17.0,17,-99.99,,,-99.99,,2013-03-03 19:31:00,
2013-03-03 11:42:00,59.0,16.0,11.45,West,260,12.0,21.0,18,-99.99,,,-99.99,,2013-03-03 19:42:00,
2013-03-03 11:51:00,61.0,17.0,11.49,West,271,11.0,19.0,18,-99.99,,,-99.99,,2013-03-03 19:51:00,
2013-03-03 12:01:00,61.0,16.0,11.48,West,273,11.0,16.0,17,-99.99,,,-99.99,,2013-03-03 20:01:00,
2013-03-03 12:11:00,62.0,18.0,11.49,WNW,282,14.0,20.0,18,-99.99,,,-99.99,,2013-03-03 20:11:00,
2013-03-03 12:21:00,62.0,17.0,11.51,West,266,13.0,20.0,17,-99.99,,,-99.99,,2013-03-03 20:21:00,
2013-03-03 12:32:00,62.0,17.0,11.49,West,275,14.0,22.0,17,-99.99,,,-99.99,,2013-03-03 20:32:00,
2013-03-03 12:42:00,62.0,18.0,11.51,WNW,282,14.0,22.0,18,-99.99,,,-99.99,,2013-03-03 20:42:00,
2013-03-03 12:52:00,61.0,16.0,11.47,WNW,287,16.0,25.0,17,-99.99,,,-99.99,,2013-03-03 20:52:00,
2013-03-03 13:01:00,61.0,16.0,11.46,WNW,294,14.0,21.0,17,-99.99,,,-99.99,,2013-03-03 21:01:00,
2013-03-03 13:11:00,61.0,14.0,11.43,WNW,283,15.0,23.0,16,-99.99,,,-99.99,,2013-03-03 21:11:00,
2013-03-03 13:21:00,62.0,14.0,11.43,WNW,296,13.0,21.0,15,-99.99,,,-99.99,,2013-03-03 21:21:00,
2013-03-03 13:31:00,62.0,14.0,11.42,WNW,287,15.0,23.0,15,-99.99,,,-99.99,,2013-03-03 21:31:00,
2013-03-03 13:41:00,61.0,14.0,11.44,WNW,288,14.0,25.0,16,-99.99,,,-99.99,,2013-03-03 21:41:00,
2013-03-03 13:52:00,63.0,16.0,11.48,West,275,13.0,22.0,16,-99.99,,,-99.99,,2013-03-03 21:52:00,
2013-03-03 14:01:00,63.0,16.0,11.48,West,275,13.0,22.0,16,-99.99,,,-99.99,,2013-03-03 22:01:00,
2013-03-03 14:11:00,63.0,16.0,11.48,West,262,14.0,21.0,16,-99.99,,,-99.99,,2013-03-03 22:11:00,
2013-03-03 14:21:00,63.0,16.0,11.49,West,268,13.0,22.0,16,-99.99,,,-99.99,,2013-03-03 22:21:00,
2013-03-03 14:31:00,61.0,17.0,11.52,West,275,13.0,23.0,18,-99.99,,,-99.99,,2013-03-03 22:31:00,
2013-03-03 14:42:00,61.0,17.0,11.52,West,275,13.0,23.0,18,-99.99,,,-99.99,,2013-03-03 22:42:00,
2013-03-03 14:52:00,61.0,17.0,11.52,West,275,13.0,23.0,18,-99.99,,,-99.99,,2013-03-03 22:52:00,
2013-03-03 15:01:00,60.0,20.0,11.57,WNW,296,15.0,26.0,21,-99.99,,,-99.99,,2013-03-03 23:01:00,
2013-03-03 15:11:00,59.0,23.0,11.71,WNW,282,16.0,23.0,25,-99.99,,,-99.99,,2013-03-03 23:11:00,
2013-03-03 15:21:00,58.0,26.0,11.84,WNW,286,16.0,25.0,29,-99.99,,,-99.99,,2013-03-03 23:21:00,
2013-03-03 15:31:00,58.0,27.0,11.86,West,281,16.0,22.0,30,-99.99,,,-99.99,,2013-03-03 23:31:00,
2013-03-03 15:41:00,57.0,27.0,11.88,WNW,286,14.0,20.0,31,-99.99,,,-99.99,,2013-03-03 23:41:00,
2013-03-03 15:52:00,57.0,22.0,11.73,West,276,14.0,21.0,26,-99.99,,,-99.99,,2013-03-03 23:52:00,
2013-03-03 16:01:00,57.0,21.0,11.62,West,270,13.0,20.0,24,-99.99,,,-99.99,,2013-03-04 00:01:00,
2013-03-03 16:11:00,58.0,22.0,11.68,West,270,14.0,21.0,25,-99.99,,,-99.99,,2013-03-04 00:11:00,
2013-03-03 16:21:00,58.0,22.0,11.67,WNW,286,13.0,20.0,25,-99.99,,,-99.99,,2013-03-04 00:21:00,
2013-03-03 16:32:00,56.0,23.0,11.74,West,277,11.0,16.0,28,-99.99,,,-99.99,,2013-03-04 00:32:00,
2013-03-03 16:41:00,56.0,23.0,11.74,West,277,11.0,16.0,28,-99.99,,,-99.99,,2013-03-04 00:41:00,
2013-03-03 16:51:00,55.0,22.0,11.70,West,272,12.0,20.0,27,-99.99,,,-99.99,,2013-03-04 00:51:00,
2013-03-03 17:01:00,55.0,22.0,11.69,West,272,11.0,17.0,27,-99.99,,,-99.99,,2013-03-04 01:01:00,
2013-03-03 17:11:00,54.0,20.0,11.65,West,268,10.0,15.0,26,-99.99,,,-99.99,,2013-03-04 01:11:00,
2013-03-03 17:21:00,54.0,20.0,11.64,West,276,10.0,16.0,26,-99.99,,,-99.99,,2013-03-04 01:21:00,
2013-03-03 17:31:00,53.0,20.0,11.65,West,271,7.0,13.0,27,-99.99,,,-99.99,,2013-03-04 01:31:00,
2013-03-03 17:42:00,53.0,20.0,11.65,West,271,7.0,13.0,27,-99.99,,,-99.99,,2013-03-04 01:42:00,
2013-03-03 17:51:00,53.0,21.0,11.66,West,276,7.0,11.0,28,-99.99,,,-99.99,,2013-03-04 01:51:00,
2013-03-03 18:01:00,53.0,21.0,11.66,West,276,7.0,11.0,28,-99.99,,,-99.99,,2013-03-04 02:01:00,
2013-03-03 18:11:00,52.0,21.0,11.71,West,276,8.0,13.0,29,-99.99,,,-99.99,,2013-03-04 02:11:00,
2013-03-03 18:22:00,52.0,22.0,11.76,West,278,8.0,13.0,31,-99.99,,,-99.99,,2013-03-04 02:22:00,
2013-03-03 18:31:00,51.0,22.0,11.77,WNW,282,8.0,12.0,32,-99.99,,,-99.99,,2013-03-04 02:31:00,
2013-03-03 18:41:00,50.0,21.0,11.76,West,280,9.0,13.0,32,-99.99,,,-99.99,,2013-03-04 02:41:00,
2013-03-03 18:52:00,49.0,23.0,11.85,WNW,284,8.0,11.0,36,-99.99,,,-99.99,,2013-03-04 02:52:00,
2013-03-03 19:01:00,49.0,23.0,11.85,WNW,284,8.0,11.0,36,-99.99,,,-99.99,,2013-03-04 03:01:00,
2013-03-03 19:11:00,48.0,24.0,11.99,West,281,7.0,10.0,39,-99.99,,,-99.99,,2013-03-04 03:11:00,
2013-03-03 19:21:00,48.0,26.0,12.08,WNW,291,5.0,8.0,42,-99.99,,,-99.99,,2013-03-04 03:21:00,
2013-03-03 19:31:00,48.0,27.0,12.14,WNW,292,4.0,7.0,44,-99.99,,,-99.99,,2013-03-04 03:31:00,
2013-03-03 19:41:00,48.0,28.0,12.18,WNW,290,4.0,6.0,45,-99.99,,,-99.99,,2013-03-04 03:41:00,
2013-03-03 19:52:00,47.0,27.0,12.22,WNW,292,5.0,8.0,46,-99.99,,,-99.99,,2013-03-04 03:52:00,
2013-03-03 20:01:00,47.0,28.0,12.25,WNW,297,6.0,8.0,47,-99.99,,,-99.99,,2013-03-04 04:01:00,
2013-03-03 20:11:00,47.0,28.0,12.26,WNW,300,5.0,8.0,47,-99.99,,,-99.99,,2013-03-04 04:11:00,
2013-03-03 20:22:00,47.0,28.0,12.28,WNW,295,6.0,11.0,48,-99.99,,,-99.99,,2013-03-04 04:22:00,
2013-03-03 20:31:00,47.0,28.0,12.24,WNW,290,5.0,8.0,47,-99.99,,,-99.99,,2013-03-04 04:31:00,
2013-03-03 20:41:00,47.0,28.0,12.24,WNW,290,5.0,8.0,47,-99.99,,,-99.99,,2013-03-04 04:41:00,
2013-03-03 20:51:00,47.0,28.0,12.24,WNW,287,5.0,7.0,47,-99.99,,,-99.99,,2013-03-04 04:51:00,
2013-03-03 21:01:00,47.0,27.0,12.23,West,271,5.0,7.0,46,-99.99,,,-99.99,,2013-03-04 05:01:00,
2013-03-03 21:11:00,47.0,28.0,12.23,WNW,282,5.0,7.0,47,-99.99,,,-99.99,,2013-03-04 05:11:00,
2013-03-03 21:22:00,47.0,28.0,12.26,West,281,6.0,8.0,47,-99.99,,,-99.99,,2013-03-04 05:22:00,
2013-03-03 21:31:00,47.0,28.0,12.28,West,281,7.0,10.0,48,-99.99,,,-99.99,,2013-03-04 05:31:00,
2013-03-03 21:42:00,47.0,28.0,12.29,WNW,283,8.0,11.0,48,-99.99,,,-99.99,,2013-03-04 05:42:00,
2013-03-03 21:52:00,47.0,29.0,12.30,WNW,283,7.0,11.0,49,-99.99,,,-99.99,,2013-03-04 05:52:00,
2013-03-03 22:01:00,47.0,29.0,12.31,West,281,8.0,11.0,49,-99.99,,,-99.99,,2013-03-04 06:01:00,
2013-03-03 22:11:00,46.0,28.0,12.34,West,281,8.0,11.0,50,-99.99,,,-99.99,,2013-03-04 06:11:00,
2013-03-03 22:21:00,46.0,29.0,12.37,WNW,289,7.0,10.0,51,-99.99,,,-99.99,,2013-03-04 06:21:00,
2013-03-03 22:31:00,45.0,29.0,12.43,WNW,299,7.0,11.0,53,-99.99,,,-99.99,,2013-03-04 06:31:00,
2013-03-03 22:42:00,45.0,29.0,12.43,WNW,299,7.0,11.0,53,-99.99,,,-99.99,,2013-03-04 06:42:00,
2013-03-03 22:51:00,45.0,29.0,12.45,WNW,292,7.0,11.0,53,-99.99,,,-99.99,,2013-03-04 06:51:00,
2013-03-03 23:01:00,45.0,30.0,12.50,WNW,293,8.0,12.0,55,-99.99,,,-99.99,,2013-03-04 07:01:00,
2013-03-03 23:11:00,45.0,30.0,12.50,WNW,293,8.0,12.0,55,-99.99,,,-99.99,,2013-03-04 07:11:00,
2013-03-03 23:21:00,44.0,29.0,12.52,NW,312,6.0,10.0,56,-99.99,,,-99.99,,2013-03-04 07:21:00,
2013-03-03 23:31:00,43.0,29.0,12.58,NW,312,5.0,7.0,58,-99.99,,,-99.99,,2013-03-04 07:31:00,
2013-03-03 23:41:00,43.0,30.0,12.61,NW,308,6.0,10.0,59,-99.99,,,-99.99,,2013-03-04 07:41:00,
2013-03-03 23:51:00,43.0,30.0,12.63,WNW,293,8.0,12.0,59,-99.99,,,-99.99,,2013-03-04 07:51:00,